Historical Weather Data
Okotoks
Hwy 2A and Milligan Dr

Date
ET inches
Rain inches
Temperature °C
Humidity
Avg
Wind kmh
Avg
Solar Wm2
Avg
High
Avg
Low
01/01/2021 0.01 0.00 6.3 -2.7 -12.7 67 0.0 31
01/02/2021 0.02 0.00 7.0 3.3 -4.6 50 0.0 43
01/03/2021 0.01 0.00 4.5 0.8 -5.1 53 0.0 55
01/04/2021 0.01 0.00 3.4 -2.4 -10.7 64 0.0 34
01/05/2021 0.01 0.00 3.9 -0.7 -7.1 64 0.0 52
01/06/2021 0.01 0.00 6.4 0.6 -6.1 61 0.0 37
01/07/2021 0.01 0.00 -0.1 -7.1 -13.1 66 0.0 62
01/08/2021 0.01 0.00 -5.5 -12.6 -19.6 67 0.0 66
01/09/2021 0.01 0.00 2.2 -8.7 -16.1 65 0.0 62
01/10/2021 0.01 0.00 2.9 -4.8 -13.6 63 0.0 30
01/11/2021 0.02 0.00 7.1 -0.3 -9.7 56 0.0 46
01/12/2021 0.01 0.00 8.9 4.5 -0.9 53 0.0 39
01/13/2021 0.01 0.00 9.1 2.1 -4.8 58 0.0 32
01/14/2021 0.02 0.00 5.3 -4.0 -9.4 50 0.0 68
01/15/2021 0.01 0.00 7.4 -2.0 -10.9 58 0.0 51
01/16/2021 0.02 0.00 5.3 -2.4 -8.2 55 0.0 66
01/17/2021 0.01 0.00 5.6 -0.7 -6.5 61 0.0 42
01/18/2021 0.01 0.00 2.4 -1.8 -10.1 64 0.0 47
01/19/2021 0.01 0.00 6.0 -4.1 -13.8 60 0.0 35
01/20/2021 0.02 0.00 7.5 -5.2 -13.1 66 0.0 75
01/21/2021 0.01 0.00 0.9 -8.9 -14.3 65 0.0 76
01/22/2021 0.01 0.00 -3.0 -11.2 -16.4 74 0.0 78
01/23/2021 0.01 0.00 -2.5 -11.0 -16.2 74 0.0 74
01/24/2021 0.01 0.00 -10.1 -14.9 -16.2 89 0.0 55
01/25/2021 0.01 0.00 -12.7 -14.9 -16.9 89 0.0 42
01/26/2021 0.01 0.00 -10.6 -14.6 -16.8 89 0.0 60
01/27/2021 0.01 0.00 -9.1 -13.3 -15.2 89 0.0 44
01/28/2021 0.00 0.00 -12.4 -13.9 -15.4 90 0.0 35
01/29/2021 0.01 0.00 -4.4 -13.4 -19.3 83 0.0 89
01/30/2021 0.02 0.00 3.3 -10.7 -19.7 73 0.0 85
01/31/2021 0.02 0.00 6.9 -0.4 -10.8 63 0.0 72
02/01/2021 0.03 0.00 10.2 0.8 -8.7 67 0.0 81
02/02/2021 0.01 0.00 -4.8 -10.7 -14.2 88 0.0 76
02/03/2021 0.01 0.00 -8.9 -15.7 -22.2 81 0.0 46
02/04/2021 0.01 0.00 -0.5 -10.3 -22.6 81 0.0 55
02/05/2021 0.00 0.00 -7.4 -15.9 -21.5 87 0.0 44
02/06/2021 0.01 0.00 -20.6 -22.3 -23.8 79 0.0 75
02/07/2021 0.01 0.00 -21.4 -26.3 -31.0 76 0.0 93
02/08/2021 0.01 0.00 -21.6 -27.0 -35.4 72 0.0 101
02/09/2021 0.01 0.00 -18.9 -29.4 -34.0 67 0.0 105
02/10/2021 0.01 0.00 -21.6 -28.7 -35.4 66 0.0 120
02/11/2021 0.01 0.00 -20.8 -31.4 -37.6 65 0.0 101
02/12/2021 0.01 0.00 -13.6 -22.3 -33.1 72 0.0 103
02/13/2021 0.01 0.00 -17.5 -22.4 -31.1 76 0.0 120
02/14/2021 0.01 0.00 -19.5 -26.0 -33.0 76 0.0 109
02/15/2021 0.01 0.00 -12.1 -23.0 -29.8 73 0.0 122
02/16/2021 0.02 0.00 2.2 -12.9 -26.7 80 0.0 110
02/17/2021 0.02 0.00 -5.8 -9.9 -14.0 71 0.0 75
02/18/2021 0.03 0.00 -1.0 -10.7 -19.5 67 0.0 126
02/19/2021 0.03 0.00 6.4 -3.5 -10.1 49 0.0 124
02/20/2021 0.04 0.00 4.0 -3.7 -12.5 42 0.0 134
02/21/2021 0.03 0.00 7.2 1.3 -8.5 50 0.0 81
02/22/2021 0.04 0.00 9.6 2.2 -3.8 68 0.0 121
02/23/2021 0.03 0.00 1.9 -3.2 -8.9 73 0.0 102
02/24/2021 0.04 0.00 3.5 -6.2 -13.1 58 0.0 143
02/25/2021 0.04 0.00 8.3 -0.5 -6.1 40 0.0 133
02/26/2021 0.02 0.00 -1.8 -7.2 -13.4 70 0.0 97
02/27/2021 0.02 0.00 -5.1 -11.4 -17.1 80 0.0 114
02/28/2021 0.04 0.00 7.4 -3.3 -12.8 61 0.0 139
03/01/2021 0.04 0.00 11.8 4.1 -1.3 48 0.0 105
03/02/2021 0.04 0.00 7.4 -0.6 -7.8 64 0.0 116
03/03/2021 0.05 0.00 9.2 0.8 -6.7 56 0.0 134
03/04/2021 0.06 0.00 12.0 1.5 -6.7 56 0.0 157
03/05/2021 0.05 0.00 13.0 6.6 0.9 34 0.0 122
03/06/2021 0.03 0.00 8.1 2.0 -5.3 61 0.0 90
03/07/2021 0.05 0.00 7.7 -1.3 -9.2 60 0.0 152
03/08/2021 0.05 0.00 6.9 -1.5 -8.5 62 0.0 165
03/09/2021 0.05 0.00 6.2 -1.3 -8.3 66 0.0 168
03/10/2021 0.02 0.00 -3.2 -7.0 -12.4 70 0.0 85
03/11/2021 0.05 0.00 6.2 -5.4 -16.0 65 0.0 178
03/12/2021 0.07 0.00 15.6 2.6 -6.3 49 0.0 165
03/13/2021 0.07 0.00 14.9 4.5 -3.8 51 0.0 171
03/14/2021 0.08 0.00 17.5 6.7 -3.1 40 0.0 178
03/15/2021 0.06 0.00 7.1 0.4 -5.5 57 0.0 175
03/16/2021 0.07 0.00 9.1 -1.0 -9.0 66 0.0 191
03/17/2021 0.08 0.00 14.1 2.1 -8.4 53 0.0 189
03/18/2021 0.09 0.00 16.2 5.8 -5.9 42 0.0 184
03/19/2021 0.08 0.00 14.1 6.7 -1.6 42 0.0 179
03/20/2021 0.08 0.00 10.9 1.4 -8.1 47 0.0 199
03/21/2021 0.06 0.00 10.3 0.9 -4.1 51 0.0 152
03/22/2021 0.05 0.00 7.4 -0.3 -5.7 65 0.0 119
03/23/2021 0.07 0.00 5.1 -1.4 -6.1 72 0.0 210
03/24/2021 0.05 0.00 8.5 2.0 -6.6 58 0.0 114
03/25/2021 0.03 0.00 -0.6 -3.8 -6.2 87 0.0 109
03/26/2021 0.05 0.00 5.4 -1.3 -4.9 81 0.0 149
03/27/2021 0.08 0.00 13.3 3.9 -3.9 61 0.0 187
03/28/2021 0.09 0.00 13.9 6.1 -2.9 49 0.0 178
03/29/2021 0.06 0.00 -1.6 -6.1 -10.1 60 0.0 225
03/30/2021 0.07 0.00 4.7 -4.2 -13.3 51 0.0 231
03/31/2021 0.10 0.00 13.5 3.3 -7.1 42 0.0 221
04/01/2021 0.10 0.00 16.1 8.0 0.0 29 0.0 200
04/02/2021 0.09 0.00 13.2 4.0 -4.7 47 0.0 230
04/03/2021 0.10 0.00 15.6 5.9 -4.7 40 0.0 228
04/04/2021 0.04 0.00 8.1 1.7 -4.5 70 0.0 114
04/05/2021 0.10 0.00 13.6 2.6 -7.6 58 0.0 243
04/06/2021 0.11 0.00 16.2 5.9 -4.7 37 0.0 238
04/07/2021 0.11 0.00 17.1 6.0 -5.2 42 0.0 220
04/08/2021 0.04 0.00 4.8 0.5 -6.4 67 0.0 120
04/09/2021 0.07 0.00 12.4 1.1 -8.3 52 0.0 157
04/10/2021 0.05 0.00 6.2 -0.2 -8.5 52 0.0 121
04/11/2021 0.09 0.00 6.5 -0.8 -7.2 48 0.0 228
04/12/2021 0.07 0.00 4.8 -1.8 -8.3 69 0.0 198
04/13/2021 0.10 0.00 8.1 -1.0 -10.9 52 0.0 267
04/14/2021 0.11 0.00 13.6 2.3 -9.5 44 0.0 267
04/15/2021 0.12 0.00 14.3 4.7 -6.8 41 0.0 269
04/16/2021 0.13 0.00 19.1 7.5 -3.4 32 0.0 272
04/17/2021 0.14 0.00 21.1 9.7 -2.1 29 0.0 267
04/18/2021 0.03 0.00 6.1 -1.3 -7.9 83 0.0 104
04/19/2021 0.08 0.00 4.5 0.0 -5.3 63 0.0 234
04/20/2021 0.12 0.00 11.5 3.0 -6.3 53 0.0 282
04/21/2021 0.17 0.16 19.5 8.4 -6.2 37 6.8 282
04/22/2021 0.05 0.04 7.9 -1.4 -5.0 77 19.7 191
04/23/2021 0.06 0.00 2.9 -2.2 -5.6 67 8.7 153
04/24/2021 0.05 0.00 4.5 -0.4 -4.1 79 9.1 114
04/25/2021 0.05 0.13 4.6 0.6 -1.8 91 5.3 130
04/26/2021 0.16 0.00 13.4 4.8 -6.4 54 7.5 292
04/27/2021 0.18 0.00 16.1 7.0 -2.7 39 11.2 276
04/28/2021 0.18 0.00 19.3 8.3 -5.1 43 9.2 274
04/29/2021 0.15 0.00 20.6 11.1 0.4 49 7.1 207
04/30/2021 0.23 0.00 23.0 12.9 2.1 42 12.5 283
05/01/2021 0.13 0.00 15.2 6.1 -2.0 59 14.2 229
05/02/2021 0.11 0.00 11.0 4.9 -2.3 66 13.8 212
05/03/2021 0.13 0.00 14.7 5.9 -4.2 65 6.9 256
05/04/2021 0.10 0.12 13.6 5.5 -0.8 73 10.2 190
05/05/2021 0.14 0.00 15.2 6.8 -2.2 57 7.1 268
05/06/2021 0.20 0.00 19.1 10.6 0.1 45 16.8 255
05/07/2021 0.12 0.00 16.0 10.0 5.7 45 11.7 132
05/08/2021 0.04 0.37 5.9 2.2 0.0 91 22.1 103
05/09/2021 0.02 0.26 1.5 0.5 -0.2 98 7.8 37
05/10/2021 0.15 0.00 14.6 5.1 -4.1 67 5.2 316
05/11/2021 0.09 0.00 13.1 6.3 -0.2 68 10.7 171
05/12/2021 0.18 0.00 18.4 9.5 -1.8 50 7.4 286
05/13/2021 0.16 0.00 17.5 10.8 4.6 53 12.0 215
05/14/2021 0.18 0.00 20.6 11.5 0.9 53 6.1 306
05/15/2021 0.20 0.00 22.9 13.0 0.5 45 6.4 323
05/16/2021 0.24 0.00 25.0 15.7 5.7 39 9.3 313
05/17/2021 0.23 0.00 26.0 17.2 8.0 38 12.3 243
05/18/2021 0.22 0.00 16.3 9.2 -0.5 48 17.3 349
05/19/2021 0.11 0.00 10.6 3.0 -4.7 62 11.4 239
05/20/2021 0.04 0.04 0.2 -0.7 -1.7 90 8.8 115
05/21/2021 0.10 0.01 10.3 3.4 -1.1 68 4.7 210
05/22/2021 0.13 0.00 13.8 6.0 -2.8 62 8.3 225
05/23/2021 0.03 0.65 6.4 2.9 -0.6 92 8.1 74
05/24/2021 0.06 0.37 9.4 5.5 0.0 90 16.9 114
05/25/2021 0.07 0.09 12.7 8.1 5.1 83 7.9 135
05/26/2021 0.14 0.06 18.4 10.4 4.2 77 13.5 255
05/27/2021 0.23 0.00 21.8 12.8 1.7 51 15.9 287
05/28/2021 0.20 0.00 17.4 10.1 1.5 46 13.5 294
05/29/2021 0.18 0.00 19.4 10.2 -1.8 45 6.1 306
05/30/2021 0.24 0.00 22.5 13.3 1.6 40 8.9 349
05/31/2021 0.24 0.00 24.7 16.5 5.1 40 8.1 350
06/01/2021 0.24 0.00 27.9 18.7 7.6 43 6.3 337
06/02/2021 0.25 0.00 31.1 20.4 9.1 42 6.5 343
06/03/2021 0.30 0.00 31.5 22.2 10.3 38 9.7 351
06/04/2021 0.28 0.00 28.1 20.2 10.8 41 11.9 341
06/05/2021 0.13 0.17 16.9 11.8 6.4 72 9.6 255
06/06/2021 0.14 0.05 15.5 8.8 3.2 71 10.6 245
06/07/2021 0.19 0.00 15.6 8.3 0.2 60 10.3 326
06/08/2021 0.13 0.00 16.4 8.7 0.6 68 7.6 219
06/09/2021 0.07 0.11 14.0 8.3 -0.1 87 7.1 133
06/10/2021 0.08 0.05 12.6 9.5 7.2 81 10.1 140
06/11/2021 0.21 0.00 19.3 11.5 1.5 48 8.2 326
06/12/2021 0.22 0.00 21.5 12.4 1.6 47 9.2 319
06/13/2021 0.26 0.00 29.1 16.6 1.8 46 11.6 304
06/14/2021 0.23 0.00 31.1 21.1 8.9 50 6.5 299
06/15/2021 0.27 0.00 27.5 19.2 12.3 52 15.8 316
06/16/2021 0.27 0.00 21.5 14.8 6.2 40 12.2 362
06/17/2021 0.25 0.00 24.9 13.5 1.6 43 9.9 333
06/18/2021 0.24 0.00 23.9 14.4 0.9 51 8.4 337
06/19/2021 0.08 0.40 16.5 12.7 10.0 76 8.9 124
06/20/2021 0.20 0.00 21.6 14.7 8.8 58 10.5 305
06/21/2021 0.23 0.00 27.3 17.0 4.4 50 5.1 358
06/22/2021 0.26 0.00 30.6 20.3 8.1 42 8.3 320
06/23/2021 0.25 0.00 25.3 18.5 12.6 49 11.2 322
06/24/2021 0.10 0.45 20.5 14.2 10.9 79 6.6 178
06/25/2021 0.24 0.00 26.4 18.3 8.9 60 9.5 343
06/26/2021 0.27 0.00 31.0 22.4 12.7 52 7.5 352
06/27/2021 0.26 0.00 31.0 22.8 14.0 55 6.1 351
06/28/2021 0.28 0.00 34.0 23.7 10.5 55 7.0 349
06/29/2021 0.32 0.00 35.2 25.8 15.2 46 9.2 352
06/30/2021 0.34 0.00 34.2 24.9 10.7 39 9.9 361
07/01/2021 0.33 0.00 34.9 25.1 12.7 37 11.0 345
07/02/2021 0.20 0.14 30.9 22.2 13.3 57 10.3 239
07/03/2021 0.22 0.05 27.6 19.0 10.4 66 7.6 322
07/04/2021 0.06 0.05 19.2 15.7 12.9 91 7.9 101
07/05/2021 0.06 0.04 17.4 14.1 12.3 88 5.4 98
07/06/2021 0.18 0.46 24.5 17.4 11.4 77 5.0 280
07/07/2021 0.15 0.37 26.4 18.0 10.5 77 5.6 224
07/08/2021 0.20 0.04 26.3 18.3 9.2 65 6.3 308
07/09/2021 0.22 0.00 28.2 19.5 10.2 62 4.7 323
07/10/2021 0.26 0.00 31.6 21.3 10.3 56 6.4 339
07/11/2021 0.14 0.05 22.6 16.8 10.9 69 8.2 209
07/12/2021 0.21 0.00 26.3 17.6 8.2 65 5.5 314
07/13/2021 0.22 0.00 27.8 19.5 10.0 61 6.9 302
07/14/2021 0.20 0.00 30.4 20.8 9.3 60 5.0 283
07/15/2021 0.22 0.00 29.5 20.9 11.6 55 7.7 278
07/16/2021 0.19 0.00 26.4 19.9 14.1 59 8.6 268
07/17/2021 0.20 0.00 23.6 17.0 10.9 72 9.6 317
07/18/2021 0.08 0.00 21.5 15.6 12.6 84 7.5 132
07/19/2021 0.14 0.00 24.5 17.3 12.2 82 9.1 210
07/20/2021 0.12 0.00 25.9 18.0 14.5 86 7.5 185
07/21/2021 0.17 0.00 26.9 19.2 13.8 66 10.3 199
07/22/2021 0.23 0.00 25.6 16.0 5.7 50 8.6 307
07/23/2021 0.22 0.00 26.9 15.4 3.0 49 7.8 302
07/24/2021 0.21 0.00 29.5 17.5 4.8 46 6.7 288
07/25/2021 0.19 0.00 27.8 18.0 6.9 55 5.8 276
07/26/2021 0.19 0.00 27.3 18.4 10.7 60 8.9 274
07/27/2021 0.16 0.00 24.7 17.1 9.6 70 8.4 233
07/28/2021 0.18 0.00 28.1 19.0 9.0 61 5.3 248
07/29/2021 0.19 0.00 28.4 20.3 11.8 62 7.5 241
07/30/2021 0.21 0.00 29.8 20.4 10.5 58 7.3 253
07/31/2021 0.19 0.00 31.7 20.8 10.2 57 6.1 228
08/01/2021 0.23 0.00 32.8 22.3 9.8 50 7.7 240
08/02/2021 0.09 0.00 24.2 20.7 16.4 70 7.7 96
08/03/2021 0.21 0.00 30.9 22.3 14.0 55 7.7 255
08/04/2021 0.16 0.00 28.5 18.8 9.8 51 7.5 187
08/05/2021 0.21 0.00 31.0 20.2 7.7 50 7.0 244
08/06/2021 0.17 0.00 30.1 19.7 12.4 52 7.6 189
08/07/2021 0.12 0.00 25.7 18.0 11.1 57 5.9 132
08/08/2021 0.04 0.00 17.3 12.2 9.7 76 5.9 40
08/09/2021 0.17 0.00 26.7 15.7 5.5 61 6.3 245
08/10/2021 0.13 0.00 21.5 16.5 11.2 55 8.0 183
08/11/2021 0.15 0.00 21.6 16.7 9.5 52 9.5 191
08/12/2021 0.19 0.00 26.1 18.1 10.2 47 4.7 269
08/13/2021 0.21 0.00 33.3 20.1 6.2 46 6.6 270
08/14/2021 0.18 0.00 35.0 22.3 8.8 34 6.7 191
08/15/2021 0.18 0.00 31.7 22.5 12.9 37 7.3 173
08/16/2021 0.07 0.22 19.7 16.0 10.5 61 6.8 68
08/17/2021 0.03 1.33 10.6 9.2 7.4 96 7.5 53
08/18/2021 0.16 0.00 19.5 12.3 6.6 69 8.7 263
08/19/2021 0.06 0.00 15.5 11.1 3.6 82 8.0 100
08/20/2021 0.10 0.00 19.5 12.6 9.4 73 7.7 156
08/21/2021 0.07 0.00 16.5 11.2 7.3 82 6.5 103
08/22/2021 0.14 0.00 23.0 12.9 7.4 75 7.8 210
08/23/2021 0.11 0.20 17.3 9.6 6.0 77 12.7 209
08/24/2021 0.13 0.00 18.2 11.0 6.3 61 11.2 226
08/25/2021 0.17 0.00 21.5 11.8 1.3 61 8.3 253
08/26/2021 0.14 0.00 24.9 14.0 3.6 56 4.9 207
08/27/2021 0.13 0.00 20.1 13.7 8.0 61 9.4 176
08/28/2021 0.15 0.00 23.4 14.0 4.8 59 6.2 230
08/29/2021 0.17 0.00 25.8 15.0 4.1 55 6.4 243
08/30/2021 0.17 0.00 25.3 15.2 4.9 51 7.3 231
08/31/2021 0.13 0.00 21.8 11.7 3.4 69 7.8 204
09/01/2021 0.10 0.00 18.6 9.2 2.5 70 7.2 163
09/02/2021 0.11 0.00 16.5 10.0 0.9 67 5.7 189
09/03/2021 0.13 0.00 22.8 12.5 2.8 62 4.2 224
09/04/2021 0.16 0.00 25.7 14.2 2.7 53 6.7 219
09/05/2021 0.14 0.00 26.6 17.3 7.8 46 5.5 180
09/06/2021 0.15 0.00 23.1 13.6 4.0 52 6.9 222
09/07/2021 0.16 0.00 24.7 13.6 2.1 50 6.8 221
09/08/2021 0.10 0.00 25.2 13.2 4.5 63 5.1 136
09/09/2021 0.15 0.00 28.3 15.9 5.4 57 6.3 197
09/10/2021 0.13 0.01 20.6 12.9 4.3 68 9.3 180
09/11/2021 0.03 0.12 15.1 11.1 9.3 92 5.6 63
09/12/2021 0.05 0.01 15.5 10.8 6.0 89 6.8 98
09/13/2021 0.12 0.00 19.7 11.2 4.0 67 5.2 198
09/14/2021 0.13 0.00 21.0 11.2 1.0 54 6.9 170
09/15/2021 0.05 0.01 11.7 6.3 -1.8 71 9.0 79
09/16/2021 0.11 0.00 15.5 4.8 -3.9 50 6.2 189
09/17/2021 0.15 0.00 20.8 8.3 -5.4 51 14.1 158
09/18/2021 0.20 0.00 21.4 16.0 5.4 40 19.6 147
09/19/2021 0.10 0.00 17.8 8.9 -0.9 44 6.8 154
09/20/2021 0.10 0.00 17.9 7.1 -2.6 51 6.5 161
09/21/2021 0.13 0.00 25.1 11.5 -1.6 46 5.8 187
09/22/2021 0.06 0.00 19.2 13.6 4.7 45 5.8 44
09/23/2021 0.11 0.00 17.5 8.4 0.7 55 6.4 171
09/24/2021 0.12 0.00 26.2 11.6 -2.5 55 5.7 165
09/25/2021 0.08 0.00 23.0 14.5 6.3 56 6.1 84
09/26/2021 0.12 0.00 26.7 14.9 5.8 53 6.2 129